Theta_e
338 338 339 339 339 338 338 337 336 334 333 333 333 330 327 324 320 316 312 310 313 321 328 329 330 330 328 326 326 326 326 325 325 323 315 311 313 312 311 311 311 311 311 312 312 310 310 310 310 311 311 310 311 310 315 318 318 319 319 320 321 323 322 321 321 320 321 323 325 324 323 322 322 322 322 321 322 324 325 326 326 326 325 324 323
338 338 338 339 339 338 338 337 337 335 334 334 333 330 328 325 322 318 314 311 309 311 318 323 326 325 323 321 320 320 321 321 321 319 313 311 313 312 311 311 311 311 311 311 311 311 310 310 310 310 310 310 310 311 314 316 316 317 318 317 317 317 317 316 316 316 317 320 322 322 323 323 324 324 323 321 321 321 322 324 324 325 325 325 323
337 338 338 338 338 338 338 338 337 336 336 334 333 330 328 325 322 319 314 312 310 309 310 314 321 322 320 319 318 316 318 319 318 315 311 311 313 311 312 311 311 311 311 310 310 310 311 310 310 310 310 310 311 313 315 316 317 317 317 316 315 315 315 314 315 315 315 317 319 321 323 324 324 324 324 323 322 321 320 320 321 322 323 323 322
337 338 338 338 338 338 338 338 338 337 336 333 333 331 328 326 322 319 315 312 309 309 309 309 316 318 315 316 316 315 317 318 316 313 311 312 313 311 311 311 311 311 311 310 310 310 310 310 310 310 310 310 311 313 315 316 317 318 318 317 315 315 316 316 316 317 316 317 318 321 324 324 324 324 323 323 323 323 321 320 320 320 319 319 320
338 337 337 337 338 338 338 338 338 337 336 334 334 332 328 326 323 319 315 311 310 309 309 310 311 312 313 314 316 317 317 315 312 311 311 312 312 312 311 311 311 311 311 310 310 310 310 310 310 310 310 310 311 313 315 316 318 320 321 320 317 315 317 318 318 318 319 319 321 323 324 325 326 325 324 324 325 324 323 323 322 320 318 317 318
338 337 337 337 337 338 338 338 338 338 336 335 335 333 329 326 323 319 315 311 310 312 316 315 312 315 319 319 319 318 315 312 311 311 311 313 312 311 311 311 311 310 310 310 310 310 310 310 310 310 310 310 311 312 314 316 319 321 322 322 320 317 316 318 319 320 319 320 322 323 324 325 326 326 325 324 325 325 325 325 324 322 320 318 319
337 337 337 336 336 337 338 338 338 338 337 335 335 332 329 326 323 318 314 312 313 322 329 327 322 323 323 321 320 316 313 311 312 316 315 313 313 312 311 310 311 310 310 310 310 310 310 310 310 310 310 310 311 312 314 316 319 321 322 321 320 318 316 317 319 320 320 321 321 323 323 324 325 325 324 323 324 325 325 324 324 323 321 319 321
337 337 336 336 337 337 337 337 338 337 337 336 333 331 328 325 321 317 313 313 319 327 331 332 328 325 324 320 317 313 311 311 311 314 314 313 314 312 311 311 311 311 310 310 310 310 310 310 310 310 310 310 310 311 313 316 318 320 321 321 320 318 317 317 320 321 322 322 323 323 323 323 323 323 324 324 323 323 324 323 323 323 322 320 320
337 337 336 337 336 337 337 337 337 336 335 334 331 330 328 324 320 316 311 314 324 329 327 330 329 325 323 318 314 312 310 310 310 310 312 313 314 312 311 311 310 311 310 310 310 310 310 310 310 310 310 310 310 311 313 315 316 317 318 319 320 319 318 318 320 321 322 323 324 324 323 323 323 323 324 323 323 323 323 322 322 322 322 322 322
336 337 337 336 336 336 336 336 336 334 333 331 330 328 326 323 318 314 311 314 325 329 328 329 328 326 322 316 312 312 310 310 311 310 312 313 313 313 312 311 311 310 310 310 310 310 310 310 310 310 310 310 310 310 311 313 314 315 315 317 317 318 318 318 319 319 321 322 323 324 324 324 324 324 324 323 322 323 323 323 323 322 322 323 323
335 336 336 335 335 334 334 335 334 332 331 330 328 326 324 321 316 312 312 317 326 328 328 330 329 328 321 313 311 311 311 310 310 310 311 312 313 312 311 311 311 310 310 310 310 310 310 310 310 310 310 310 310 310 311 311 312 313 313 314 314 315 316 317 318 319 320 321 322 324 324 325 325 325 325 324 322 322 323 323 323 323 322 323 323
335 335 335 334 333 332 333 333 332 332 331 329 325 323 322 318 314 312 311 318 328 327 327 330 330 330 321 312 312 310 311 310 310 311 310 312 312 312 311 311 311 310 310 310 310 310 310 310 310 310 310 310 310 310 310 310 311 311 312 312 312 313 314 315 317 319 320 321 322 323 323 324 325 326 325 325 323 321 323 323 324 323 323 322 323
336 335 335 334 333 333 332 332 332 332 331 328 324 321 319 316 312 311 311 314 325 326 326 330 329 331 323 312 313 311 311 311 311 311 310 311 311 312 311 311 311 310 310 310 310 310 310 310 310 310 310 310 310 310 310 310 310 311 311 311 311 312 312 313 314 316 319 321 321 321 322 323 324 325 325 326 325 323 322 322 323 323 323 322 322
335 336 336 334 334 334 333 332 332 332 330 326 321 319 316 314 311 310 310 311 322 326 326 329 329 332 324 314 314 312 311 311 311 311 310 311 311 312 311 311 311 311 310 310 310 310 311 310 310 310 310 310 310 310 310 310 310 310 310 310 311 311 312 311 311 313 316 319 319 320 321 323 323 325 325 325 325 323 322 321 321 322 322 322 321
335 336 336 335 334 334 334 333 332 332 329 323 318 317 314 312 310 309 310 309 319 324 322 326 329 331 323 315 316 313 312 311 311 311 311 311 311 311 311 311 311 311 311 310 310 310 310 310 310 310 310 310 310 310 310 310 310 310 310 310 311 311 311 311 310 311 312 315 317 319 319 321 322 323 324 324 324 323 323 321 320 320 321 322 322
335 336 335 335 335 334 334 333 332 332 328 322 316 314 312 311 310 309 310 309 315 319 320 324 327 330 323 316 316 314 313 311 311 311 311 311 311 311 311 311 311 311 311 310 311 310 310 310 310 310 310 310 310 310 310 310 310 310 310 310 311 311 312 311 311 311 312 312 313 316 317 318 320 321 322 323 323 323 323 322 321 321 320 321 322
329 334 336 335 335 335 333 333 332 329 326 321 314 312 311 310 309 309 310 310 312 315 319 324 326 327 323 318 316 314 313 311 311 311 311 311 311 311 311 311 311 311 310 310 310 310 311 310 310 310 310 310 310 310 310 310 310 310 311 311 311 311 311 311 311 310 311 312 312 313 314 315 317 319 320 321 322 323 322 322 321 320 320 320 321
323 329 336 336 336 336 334 333 331 328 322 317 312 310 310 309 309 309 310 310 311 312 316 322 324 325 323 318 316 314 313 312 311 311 311 311 311 311 311 311 311 311 310 310 310 310 310 310 311 311 311 311 310 311 310 310 310 310 311 311 311 311 311 311 311 311 311 312 312 312 312 313 314 316 318 320 322 322 322 322 320 319 319 318 319
324 324 331 335 337 336 335 332 330 327 320 314 311 309 310 309 309 309 309 310 310 311 313 318 322 323 322 319 317 315 314 313 311 311 311 311 311 311 311 311 311 311 310 310 310 310 310 311 311 311 311 311 311 311 310 310 310 310 311 311 312 312 312 312 312 312 311 311 312 311 310 311 311 313 316 318 320 320 321 322 320 319 319 318 319
328 324 324 330 335 336 335 333 330 328 321 314 310 309 309 309 309 309 309 309 310 311 312 316 319 321 321 319 318 316 314 313 312 311 311 311 311 311 311 311 311 311 311 310 310 310 310 310 310 311 311 311 311 311 310 310 310 311 310 311 312 312 312 312 312 312 311 311 311 310 310 310 310 311 313 315 317 318 319 321 320 320 319 318 318
330 327 323 324 332 335 335 333 331 329 323 315 310 309 308 308 309 309 309 309 310 311 311 315 318 319 320 321 320 317 314 313 312 311 311 312 311 311 311 311 311 311 311 310 310 310 310 310 311 311 311 311 311 311 311 310 310 310 311 311 311 312 311 311 312 311 311 311 310 310 309 310 309 309 311 312 314 316 318 319 320 319 319 318 317
328 327 323 321 326 332 334 334 333 330 324 316 310 308 308 308 309 309 309 309 309 310 311 314 316 317 318 322 322 319 316 313 312 312 311 311 311 311 311 311 311 311 311 311 310 310 310 310 310 310 311 311 310 311 311 310 310 310 311 311 311 311 311 311 311 311 311 310 310 310 310 310 309 309 309 310 314 316 316 317 319 319 318 319 317
326 324 321 318 321 328 331 333 333 331 326 318 311 308 308 308 308 309 309 309 309 310 311 313 315 316 317 322 324 321 318 315 313 313 312 312 311 311 311 311 311 311 311 311 310 310 310 310 310 310 310 311 311 310 310 310 310 310 311 311 311 311 310 310 310 311 311 311 311 310 310 310 310 310 309 310 315 318 317 317 318 317 317 318 317
324 322 319 317 318 322 326 328 331 331 327 320 313 309 308 308 308 308 309 309 309 310 310 312 314 315 316 320 323 321 319 317 315 313 313 312 312 311 311 311 311 311 311 311 311 310 310 310 310 310 310 311 310 310 310 310 310 310 310 310 311 310 310 310 310 310 311 311 311 311 310 310 310 310 310 310 313 316 317 317 316 316 316 316 317
324 323 320 318 317 318 320 324 328 328 325 320 314 310 308 308 308 308 308 308 309 309 310 311 312 314 316 318 321 321 319 319 317 314 313 313 312 312 311 311 311 311 311 311 311 311 311 311 310 310 311 310 310 310 310 310 310 310 310 310 310 310 310 310 311 310 311 311 311 311 311 311 311 311 311 311 311 312 313 315 314 314 315 315 317
324 324 321 320 319 317 317 322 325 324 321 318 315 312 309 308 308 308 308 308 308 309 309 310 310 312 315 317 319 319 317 318 318 315 314 313 313 312 312 312 311 311 311 311 311 311 311 311 311 311 311 310 310 310 310 310 310 310 310 310 311 311 311 311 311 311 311 311 311 312 311 312 312 312 312 312 312 312 312 313 314 315 315 314 315
324 323 322 321 320 319 319 320 322 321 319 317 313 312 311 309 308 308 308 308 308 308 308 309 310 311 313 315 317 316 316 316 316 315 314 314 313 312 312 312 312 312 311 312 311 311 311 311 311 311 311 311 311 310 311 311 310 311 311 311 311 311 311 311 311 311 311 312 312 312 312 312 312 313 313 313 313 313 313 313 314 317 317 315 313
323 323 323 322 321 321 321 320 319 319 318 316 313 311 310 309 308 308 308 308 308 308 308 308 309 310 312 314 315 315 314 314 314 314 314 314 313 313 313 312 312 312 312 312 312 312 311 311 311 311 311 311 311 311 311 311 311 311 311 311 311 311 311 312 312 312 312 312 312 312 312 312 313 313 313 313 314 314 314 314 314 317 318 318 315
322 323 323 322 322 323 322 322 321 319 318 316 313 311 310 310 309 309 308 308 308 308 308 307 308 309 310 312 314 314 313 313 313 312 313 313 313 313 314 313 313 312 312 312 312 312 312 312 312 311 311 311 311 311 311 311 311 311 311 311 311 311 312 312 312 313 313 312 312 312 312 312 312 313 313 313 314 314 315 315 315 316 317 318 317
320 321 322 323 323 323 323 323 323 322 320 318 315 312 311 310 310 310 309 309 309 308 308 308 308 308 309 310 312 312 312 312 312 312 312 312 312 313 313 314 314 313 313 313 312 312 312 312 312 312 312 311 312 311 311 311 311 311 311 311 311 312 312 312 313 313 313 313 313 313 312 312 312 313 313 313 314 314 315 315 315 316 316 316 316
319 319 320 322 323 323 323 323 323 323 323 321 318 315 312 311 311 310 310 309 309 309 309 308 308 308 308 309 309 310 310 311 312 312 312 312 312 313 313 313 313 313 313 313 313 312 312 312 312 312 312 312 312 312 311 311 311 311 311 312 312 312 312 312 313 313 313 313 313 313 313 313 313 313 313 313 314 314 314 315 315 315 315 315 315
316 317 318 319 321 322 322 323 323 323 323 323 322 319 314 312 311 310 310 310 309 309 309 309 309 309 309 309 309 309 309 310 311 311 311 311 312 313 313 312 312 313 313 313 313 313 313 312 312 312 312 312 312 312 312 312 312 312 311 312 312 312 312 313 313 313 313 313 313 314 313 313 313 313 313 313 314 314 315 315 315 315 315 316 316
315 315 316 317 318 319 321 322 323 323 322 323 323 322 319 315 312 311 310 310 310 309 309 309 309 309 309 309 309 309 309 309 310 310 311 311 311 312 313 312 312 312 312 313 313 313 313 313 313 312 312 312 312 312 312 312 312 312 312 312 312 312 312 313 313 313 313 314 314 314 314 313 313 313 313 313 313 314 314 315 315 315 315 315 316
316 315 315 315 315 316 317 319 321 321 321 322 323 323 323 320 317 313 311 311 310 310 310 310 310 309 309 309 309 309 309 309 310 310 310 310 311 311 312 312 312 312 312 312 312 312 312 312 313 312 312 312 312 312 312 312 312 312 312 312 312 312 312 313 313 313 313 313 313 313 313 313 313 313 313 313 313 313 314 315 315 315 315 315 315
317 317 316 315 315 315 315 316 317 318 320 320 321 322 323 323 322 318 314 312 310 310 310 310 310 310 310 309 309 309 309 309 309 309 309 310 310 310 311 311 311 312 312 312 312 312 312 312 312 313 313 312 312 312 312 312 312 312 312 312 312 312 312 313 313 313 313 313 313 313 313 313 313 313 313 313 313 313 314 314 315 315 315 316 316
319 318 318 317 317 316 315 315 315 316 317 317 319 320 322 323 324 323 320 316 312 310 310 310 310 310 310 309 309 309 309 309 309 309 309 309 309 310 310 310 310 311 312 312 312 312 312 311 312 312 312 312 312 312 312 312 312 312 312 312 312 312 312 313 313 313 313 313 313 313 313 313 312 312 313 313 313 313 313 314 314 315 315 315 316
319 319 319 319 319 318 317 316 315 315 315 315 316 318 320 322 323 324 323 321 316 311 310 310 310 310 310 310 309 309 309 309 309 309 309 309 309 309 310 309 309 310 311 311 311 311 311 311 312 312 312 312 312 312 312 312 312 312 312 312 312 312 312 312 313 313 313 313 313 313 312 312 312 312 312 313 312 313 313 314 314 314 315 315 315
321 320 320 320 320 320 319 318 318 317 316 315 315 316 318 320 322 323 324 324 321 316 313 312 311 310 310 310 310 309 309 309 309 309 309 309 309 309 309 309 309 309 309 310 310 310 311 311 311 312 312 312 312 312 312 312 312 312 312 312 312 312 312 312 313 313 313 313 313 313 312 312 311 312 312 312 312 312 313 313 314 314 314 315 315
324 322 321 321 320 320 320 320 319 318 318 317 317 318 318 318 320 322 323 324 323 321 319 317 315 312 310 310 310 310 309 309 309 309 309 310 310 310 311 311 310 310 309 309 309 309 309 309 310 310 311 311 311 311 312 311 311 312 312 312 312 312 312 312 312 312 312 312 312 312 312 311 311 311 312 312 312 312 312 313 313 314 313 314 314
325 324 323 322 321 321 321 320 320 320 319 319 319 319 318 318 318 319 321 323 324 324 323 323 322 320 316 313 311 310 309 309 309 309 310 311 312 313 313 313 313 312 312 312 312 311 310 310 309 309 309 310 310 311 311 311 311 311 311 311 311 311 311 312 312 312 312 311 311 311 311 311 311 311 311 311 312 312 312 312 313 313 313 314 314
325 325 324 323 321 320 321 321 321 320 320 319 319 319 318 316 315 316 319 321 323 324 325 325 325 325 323 321 317 313 310 309 310 309 310 312 313 315 316 316 316 316 316 316 316 316 314 313 312 310 310 309 309 309 309 310 310 310 310 310 310 311 311 311 311 311 310 310 310 310 310 310 311 311 311 311 312 312 312 312 312 313 313 313 314
324 325 325 325 323 321 320 320 321 321 321 321 320 319 318 317 315 314 315 318 321 322 324 325 325 326 326 325 324 320 316 311 309 309 310 311 313 316 317 317 318 318 318 318 318 318 317 317 316 315 314 314 313 312 310 310 310 310 310 310 310 310 310 310 310 310 310 310 310 310 311 311 311 311 312 312 312 313 313 313 313 313 313 313 313
324 324 325 326 325 323 321 320 321 321 321 321 321 321 320 319 317 315 314 315 317 319 322 323 324 325 325 325 326 325 322 316 311 309 309 310 312 314 316 317 318 318 319 319 319 319 319 319 318 318 318 317 317 317 315 313 313 311 311 312 312 312 312 311 311 311 310 311 311 311 311 311 312 312 313 313 313 314 314 314 314 314 314 314 314
324 324 324 325 326 325 324 322 321 321 322 322 322 322 321 321 320 318 316 315 316 318 319 321 322 323 323 324 324 325 326 323 317 312 310 310 311 312 314 316 317 318 318 319 319 319 320 320 320 320 319 319 319 319 318 317 316 314 313 314 314 314 314 313 313 312 312 312 312 312 313 312 313 313 314 314 315 315 315 315 315 315 315 315 315
325 325 325 325 325 326 326 325 323 322 322 323 323 322 322 321 320 319 319 318 317 317 318 319 320 320 321 321 322 323 325 325 323 319 314 311 310 311 312 314 316 317 318 318 318 319 319 319 320 320 319 319 320 320 319 318 318 317 316 315 315 316 315 314 314 314 313 314 314 313 313 313 313 313 314 314 315 316 315 315 315 315 316 316 316
326 327 326 325 325 325 326 326 326 326 325 325 324 323 323 323 322 321 321 320 318 318 319 320 320 320 320 319 320 321 321 322 324 323 320 316 313 312 311 312 314 316 317 317 318 318 318 319 319 319 319 319 319 319 319 319 318 318 317 317 317 316 316 315 315 315 315 314 314 313 313 313 313 313 314 314 315 315 315 316 316 316 316 316 317
327 327 327 326 325 325 326 326 326 327 327 327 326 325 324 324 324 323 322 321 320 321 322 322 322 321 321 320 320 320 321 321 321 321 322 321 319 318 316 314 314 315 316 316 317 318 318 318 318 319 319 319 319 319 319 319 318 318 318 318 318 317 316 316 315 315 315 314 313 314 314 314 314 314 314 314 314 315 316 316 316 316 317 317 317
328 327 327 327 326 326 326 326 326 326 326 327 327 326 327 326 326 325 324 323 322 323 323 321 322 322 322 322 322 322 322 322 322 321 321 321 321 320 320 319 318 318 317 318 318 318 318 318 318 318 319 319 318 319 319 319 319 319 319 319 318 318 318 317 316 316 315 315 315 313 314 314 314 314 314 314 315 315 315 316 316 316 317 317 317
328 328 327 327 327 326 326 326 326 327 326 327 327 327 327 327 327 326 326 325 325 325 322 320 321 322 322 323 323 323 323 323 323 322 322 321 320 320 320 320 321 321 320 320 321 320 320 320 319 319 319 319 319 319 319 319 319 319 319 319 319 318 318 318 317 317 316 316 316 313 314 314 313 313 314 314 314 315 315 315 316 316 316 317 317
327 328 328 327 327 327 327 326 326 327 327 326 327 327 327 327 327 327 327 326 326 326 323 322 322 322 323 323 323 324 324 324 323 323 322 322 321 321 320 319 319 320 321 321 321 321 321 321 321 321 320 320 319 319 319 319 320 320 319 319 319 319 319 319 318 318 317 317 316 314 313 314 313 313 313 314 314 314 315 315 316 316 316 317 317
327 328 328 327 327 327 327 327 327 327 327 327 327 327 327 327 327 327 327 327 327 327 325 324 323 323 323 324 324 325 325 325 325 324 323 323 322 321 321 320 319 318 318 318 318 318 318 319 320 321 320 320 319 319 319 319 319 320 320 320 320 320 319 319 318 318 318 317 316 315 313 314 315 313 313 314 314 315 315 315 316 316 317 317 317
Wind_Speed
19 19 20 20 19 18 18 17 16 15 12 10 9 9 8 8 8 8 9 10 11 12 13 12 10 10 8 6 4 3 3 2 3 4 6 8 10 12 12 11 11 11 12 13 16 17 17 18 18 18 17 17 16 15 16 15 14 12 13 14 13 13 13 13 12 12 15 17 16 16 17 18 18 17 16 15 16 16 16 17 17 17 18 17 16
22 21 21 20 19 19 18 17 16 14 12 10 9 8 7 6 6 6 7 8 9 11 12 12 11 10 8 6 5 4 3 2 3 5 7 9 11 12 12 11 11 11 12 14 16 17 17 17 17 17 16 17 17 17 18 17 15 14 14 14 13 13 13 13 13 12 13 16 17 17 17 17 16 17 16 15 14 14 15 15 15 15 16 15 15
23 23 22 21 20 19 18 17 16 14 12 10 8 6 5 4 4 4 5 6 8 9 11 11 11 9 8 7 5 3 3 3 5 7 9 10 11 11 11 11 11 11 12 15 16 16 16 16 17 16 16 17 17 18 18 17 17 16 15 15 15 15 15 15 16 14 14 16 18 18 18 16 15 15 15 15 14 14 14 14 13 13 13 13 14
22 23 23 22 21 19 18 17 16 14 11 10 8 5 3 3 3 3 4 5 7 9 11 10 10 8 7 6 4 4 4 4 6 9 10 10 11 11 10 11 11 11 13 15 15 15 16 16 16 15 16 16 17 17 17 17 17 17 16 16 16 17 17 17 18 17 16 17 17 18 17 16 15 14 14 14 13 13 14 13 13 12 11 12 13
22 23 23 22 22 20 19 17 15 14 11 10 7 4 2 2 2 2 3 4 6 8 9 9 9 8 7 6 6 6 6 6 7 9 11 11 10 10 10 10 10 11 13 14 15 15 15 15 15 15 15 16 16 16 16 16 16 16 16 15 15 16 17 17 18 18 17 16 15 16 16 15 14 13 12 12 12 13 13 12 12 12 12 12 13
21 22 22 22 22 20 19 17 16 14 12 10 8 5 2 2 1 1 2 4 6 8 8 8 9 9 8 7 7 8 7 7 8 10 11 11 10 10 10 10 10 11 13 14 14 14 15 14 15 15 14 15 15 15 15 15 15 15 14 12 12 14 15 17 17 16 16 15 13 14 14 14 14 12 11 11 11 12 12 12 11 11 12 12 13
20 21 22 22 21 20 19 17 16 14 12 10 8 5 3 2 2 1 2 5 8 12 10 8 8 9 8 7 8 8 8 9 9 10 10 10 10 10 9 10 10 11 12 13 14 14 14 14 14 14 14 14 14 15 14 15 15 14 12 10 10 12 14 15 15 14 13 13 13 13 13 12 12 11 10 10 10 11 12 11 10 10 11 11 11
20 21 21 21 20 19 18 17 15 14 12 10 8 6 4 4 3 2 3 6 10 13 12 9 7 8 7 7 8 8 9 10 10 10 9 9 9 9 9 9 10 10 11 12 13 13 13 13 14 14 13 13 14 14 14 14 14 13 12 10 9 10 12 13 13 13 12 12 12 12 11 11 10 10 10 9 9 10 10 9 9 10 10 10 10
21 21 21 21 19 18 17 17 15 13 12 11 9 7 6 5 4 4 5 7 11 12 11 9 7 7 7 7 9 9 10 10 10 9 8 8 8 9 9 8 9 10 11 11 12 12 12 13 13 13 13 12 13 13 13 12 12 11 11 10 8 8 9 10 11 11 11 10 10 9 10 9 9 9 8 8 8 8 8 8 9 9 9 9 9
21 21 20 20 18 17 16 15 15 14 13 11 9 7 7 6 6 5 6 9 12 12 10 9 7 7 8 8 10 10 10 10 10 9 8 7 7 8 8 8 8 9 10 11 11 11 11 12 12 12 12 11 11 11 11 11 10 9 9 9 7 7 8 8 9 9 9 8 8 7 8 7 7 8 7 6 7 7 7 8 8 8 8 8 8
21 21 20 19 18 16 16 15 15 14 13 11 9 8 8 8 8 7 8 10 13 13 11 10 7 8 9 9 10 10 10 10 10 9 8 7 6 7 8 8 7 8 9 10 10 10 11 11 11 11 11 10 10 10 10 9 8 8 7 7 7 6 6 7 7 6 6 6 6 5 6 6 6 7 7 6 6 6 6 7 8 7 7 7 7
22 22 20 19 18 16 16 16 16 14 13 11 10 10 10 9 9 8 9 10 12 13 12 11 9 10 10 10 10 10 10 10 10 9 8 7 6 6 7 7 7 7 8 9 9 10 10 10 10 10 10 9 9 8 8 8 7 7 6 6 6 5 4 5 5 5 4 4 4 4 4 5 5 5 6 5 5 5 6 6 6 6 6 6 5
22 21 21 20 19 17 17 17 16 14 13 11 10 11 11 11 10 9 10 11 12 13 13 12 11 12 11 10 10 10 10 10 10 9 9 8 7 6 6 7 6 6 7 8 8 8 9 9 9 9 8 8 8 7 7 7 6 6 5 5 5 4 3 4 4 4 4 4 3 4 4 4 4 4 4 5 4 3 4 4 4 5 4 4 3
22 21 20 20 20 19 18 18 16 14 13 11 11 12 12 12 11 10 11 12 12 13 14 13 13 13 12 10 10 11 10 10 10 10 9 9 8 6 6 6 6 6 7 7 7 7 8 8 8 8 7 7 7 7 6 6 6 5 4 4 4 4 3 2 3 4 4 5 4 4 4 4 3 3 4 4 2 1 1 1 2 2 2 2 2
21 21 20 20 20 20 19 18 17 15 13 11 11 12 12 12 11 11 11 12 12 13 14 14 14 13 13 12 11 11 11 11 10 10 10 9 8 7 7 6 6 6 6 7 7 7 7 7 7 6 6 6 6 6 6 5 5 4 4 3 3 4 4 2 3 4 4 4 5 4 4 4 3 3 3 2 1 0 1 0 0 0 1 1 1
20 21 20 20 20 20 20 18 18 16 14 12 11 12 12 12 11 11 11 12 12 13 13 14 15 14 14 14 12 12 11 11 11 10 10 9 9 8 7 6 6 6 6 6 6 6 6 6 6 5 5 5 5 5 5 4 4 4 3 3 4 4 4 2 2 4 4 4 4 4 4 4 3 3 3 2 1 0 1 1 1 0 1 0 0
18 20 20 19 19 20 20 19 17 16 14 12 12 13 12 12 11 11 12 12 13 13 13 14 15 14 14 14 13 12 12 11 11 11 10 10 9 8 8 7 6 6 6 6 6 6 6 5 5 4 4 3 3 3 3 3 3 3 3 3 4 4 3 1 1 3 3 3 2 3 4 4 4 3 3 3 1 1 2 3 2 2 2 2 2
16 19 20 20 19 19 19 19 17 15 14 13 14 14 14 13 12 12 12 13 13 14 14 14 15 15 15 15 14 13 12 12 12 11 11 10 10 9 8 7 7 7 6 6 6 6 5 5 4 4 3 2 2 2 2 2 2 3 3 4 4 3 3 1 1 2 1 1 1 2 3 4 5 5 5 3 2 3 3 4 4 2 2 3 4
15 17 20 21 20 19 20 19 17 15 14 14 15 15 15 14 12 12 13 14 14 15 15 15 16 15 15 16 15 14 14 13 12 12 12 11 11 10 9 8 8 8 7 7 6 6 5 5 4 4 3 2 2 1 1 1 2 2 3 4 4 4 3 2 1 2 1 0 1 2 3 4 5 6 6 5 4 5 4 4 4 3 3 3 4
16 17 19 21 22 20 21 20 18 16 15 16 16 16 16 15 14 13 15 15 16 16 16 16 17 16 15 16 16 16 15 14 14 13 13 12 11 11 10 9 9 9 8 8 7 7 6 5 5 4 3 2 2 1 0 1 1 2 3 3 3 3 3 2 2 2 1 1 1 2 3 4 4 5 7 7 6 6 5 4 4 4 4 4 4
19 19 19 21 24 23 22 21 19 17 16 17 18 18 17 16 15 14 16 16 16 17 17 17 18 18 16 16 16 16 16 15 15 14 14 13 12 11 11 10 10 9 9 9 8 7 7 6 5 4 4 3 2 2 2 2 2 3 2 2 2 2 3 3 3 2 1 0 0 2 3 4 4 5 7 8 7 6 6 5 4 5 5 4 5
21 21 20 22 25 25 24 23 21 19 18 18 19 19 18 18 16 16 17 17 17 18 18 18 19 19 18 17 17 16 17 16 15 15 14 14 13 12 12 11 11 10 10 10 9 8 7 6 6 5 4 4 3 3 3 3 3 4 3 2 1 1 2 3 3 3 2 1 1 2 3 4 4 5 6 7 7 6 7 6 5 5 6 6 6
21 21 20 22 25 26 25 24 23 21 20 20 21 20 20 19 18 17 17 18 18 18 19 19 20 20 19 19 18 17 17 17 16 15 15 15 14 14 13 12 12 11 11 10 10 9 8 7 6 6 6 5 5 4 5 5 4 4 5 4 2 1 2 3 4 4 3 2 2 3 4 4 5 5 6 6 6 5 6 6 6 6 7 7 7
18 18 19 21 24 26 27 25 24 23 22 22 22 22 22 21 19 18 18 18 18 18 19 19 20 20 20 20 19 17 17 17 16 17 17 16 16 15 15 14 14 13 12 11 11 10 9 8 8 8 8 7 6 6 6 6 5 5 6 6 4 3 3 4 5 4 3 2 3 4 4 4 5 5 6 7 7 6 6 7 7 7 7 8 8
15 17 19 20 21 24 25 25 24 24 23 23 24 24 23 23 22 20 19 19 19 19 20 20 21 21 21 21 20 18 17 18 18 18 18 17 17 16 16 16 15 14 13 13 12 11 10 10 10 9 9 9 8 7 7 7 7 6 7 8 7 5 4 4 5 5 4 3 3 4 4 4 5 6 6 7 8 8 8 8 9 8 7 8 8
18 19 19 18 18 20 23 24 24 25 24 24 25 24 25 25 24 22 21 20 20 20 21 21 21 22 22 22 21 20 18 19 20 20 19 18 18 17 17 17 17 16 15 14 14 13 12 11 11 11 11 10 10 9 8 8 8 8 8 9 8 7 6 5 5 6 5 4 4 3 4 5 5 6 7 8 9 9 10 10 10 8 7 7 8
21 20 18 17 18 18 20 22 23 24 24 25 25 25 25 26 25 24 23 22 21 21 21 22 22 23 23 23 23 22 20 20 20 20 20 19 19 19 19 19 18 17 17 16 15 15 14 13 13 12 13 12 11 11 10 10 10 10 10 10 10 9 8 7 7 6 6 5 5 4 4 5 5 7 7 8 9 9 10 11 10 8 7 7 8
22 21 20 19 18 18 18 20 21 22 23 24 26 26 25 26 26 26 25 24 23 23 22 22 23 23 24 24 24 24 23 22 21 21 20 19 19 19 19 20 20 19 18 18 17 17 16 15 14 14 14 14 13 13 12 12 12 12 11 12 12 11 9 9 9 8 7 6 6 6 5 5 5 6 7 8 9 9 9 10 10 9 9 9 8
22 21 21 21 19 18 18 19 20 20 21 22 24 25 26 26 27 28 27 26 25 24 23 23 23 24 25 25 25 25 24 23 22 21 20 20 19 18 19 19 20 20 20 19 19 18 17 17 16 16 16 16 15 15 14 14 14 14 13 13 13 12 11 10 10 9 9 8 7 7 7 6 6 7 7 7 8 9 9 9 10 10 10 10 10
22 20 22 22 21 20 20 20 19 19 19 19 21 23 25 27 28 28 27 27 26 25 24 25 25 25 26 25 26 26 25 24 23 22 22 21 19 19 18 18 19 20 21 21 21 20 19 19 18 18 18 18 18 17 16 16 16 16 15 15 14 13 12 11 11 11 12 11 10 9 9 8 8 8 8 8 8 9 9 9 9 9 10 11 12
22 21 21 21 22 22 22 21 21 20 20 20 19 20 22 25 27 28 28 27 27 26 26 26 26 26 26 26 26 26 26 25 24 24 23 22 21 20 18 18 18 19 21 21 21 21 21 20 21 20 20 20 20 19 19 18 18 18 17 17 15 14 14 13 13 13 14 14 13 11 11 10 9 9 9 9 9 9 9 8 8 8 9 10 11
22 22 20 20 22 23 23 23 23 22 22 22 21 20 20 21 23 25 28 28 27 27 27 27 27 27 27 26 26 26 26 26 26 25 24 23 22 21 19 19 18 19 19 20 21 22 21 21 22 22 22 22 22 21 21 21 20 19 19 19 17 16 15 15 15 15 16 16 15 15 13 12 12 11 11 11 10 10 10 10 9 8 9 9 10
21 20 20 22 23 22 23 24 24 24 24 24 24 23 21 21 22 23 24 26 28 28 28 28 27 27 27 27 26 26 26 27 27 26 25 23 22 22 21 20 19 19 19 19 20 21 22 22 22 22 23 23 24 23 23 24 23 21 21 20 19 18 17 17 17 17 18 18 18 17 16 15 15 13 12 13 12 12 12 12 11 10 9 10 10
18 18 20 22 22 22 23 24 25 25 25 26 26 25 24 24 23 23 23 24 26 27 28 28 28 28 28 27 27 27 26 26 26 26 25 24 23 22 21 20 19 20 19 20 21 21 22 22 22 23 24 24 25 24 25 25 24 23 22 22 21 20 19 19 20 19 20 19 19 19 19 19 18 17 15 15 15 14 13 13 13 12 11 11 11
19 20 20 19 19 21 22 24 25 25 26 26 26 26 26 26 25 25 25 25 25 25 26 27 27 27 27 27 27 27 26 26 26 25 25 25 24 24 23 21 20 20 20 20 21 21 22 22 23 24 24 25 26 25 26 26 25 25 24 23 23 23 22 22 22 22 21 21 21 21 21 21 20 20 18 17 17 16 15 15 15 15 14 12 12
23 21 20 19 20 20 21 23 24 24 26 26 26 26 27 27 27 27 27 27 26 26 26 26 27 28 27 27 27 27 26 26 26 26 25 25 24 24 23 23 22 22 22 21 21 22 22 22 23 24 25 25 26 26 26 26 27 26 25 25 25 25 25 25 24 24 23 23 23 23 23 23 22 21 19 18 18 18 17 17 17 17 16 15 14
26 24 22 22 22 22 22 22 23 23 24 24 25 26 27 28 29 29 29 29 29 28 27 27 28 29 28 28 27 27 27 26 26 26 26 25 24 24 23 23 23 24 24 24 23 23 23 23 24 25 25 26 26 27 27 27 28 27 27 27 27 27 28 27 26 25 25 26 26 26 25 25 24 22 21 20 19 19 19 19 19 19 18 18 17
29 28 27 26 25 25 25 24 24 23 23 24 24 26 27 29 30 30 31 31 31 30 29 29 30 30 30 29 28 28 27 27 26 26 26 25 24 24 24 23 24 24 25 25 25 25 25 25 25 25 26 26 27 27 27 27 28 28 28 29 29 29 29 29 28 28 28 29 29 28 28 27 25 23 22 22 21 21 21 21 20 20 20 20 19
28 30 30 30 29 28 28 28 27 27 26 25 26 27 28 29 31 31 32 33 34 33 32 32 31 31 32 31 30 30 30 28 28 27 27 26 25 25 24 24 24 25 25 26 26 26 27 27 27 26 26 27 27 27 27 27 28 30 30 30 30 31 31 31 30 31 31 31 31 31 30 28 27 25 24 24 23 23 23 22 22 23 22 22 21
26 28 30 32 32 31 31 31 30 29 28 29 29 30 31 31 32 33 34 35 35 35 34 34 33 33 33 32 32 32 31 30 30 30 29 27 26 25 25 25 25 26 26 27 26 26 26 26 26 26 27 28 28 28 27 27 29 31 32 32 32 32 33 33 33 33 33 33 32 31 30 29 28 26 25 24 24 24 24 24 24 25 25 24 23
28 28 30 32 33 33 33 33 32 31 31 32 32 32 33 33 33 34 36 36 35 35 35 35 35 35 35 34 34 33 32 32 32 33 32 30 28 27 27 27 27 27 28 27 26 25 25 26 26 26 27 28 28 27 26 27 30 32 32 32 33 33 34 34 34 34 33 32 32 31 30 28 28 26 24 24 24 24 25 25 25 26 26 25 25
30 30 29 30 32 34 35 35 33 33 33 33 33 34 34 34 33 34 34 35 35 35 35 34 34 35 36 36 36 34 33 33 34 35 34 33 31 30 29 29 28 29 29 28 27 27 27 27 27 27 27 27 27 26 25 27 30 31 30 31 33 33 33 34 34 33 32 30 29 28 27 25 25 23 22 24 24 24 24 25 25 26 26 26 26
33 32 31 30 33 36 37 36 35 35 35 34 35 35 35 34 34 33 33 34 34 34 34 34 35 36 37 38 38 36 35 35 36 36 37 36 34 33 32 31 31 31 32 31 30 30 29 29 28 28 27 28 28 27 26 26 28 28 27 29 31 30 31 31 29 27 25 24 23 23 23 22 22 21 21 23 23 23 23 23 23 24 25 25 25
37 36 35 35 35 37 38 38 38 38 37 37 37 36 36 35 36 36 35 35 34 34 35 36 38 39 38 38 38 38 37 36 36 37 37 37 37 36 35 34 34 34 34 34 33 32 32 31 30 30 30 30 30 28 27 27 28 28 26 26 26 25 28 26 23 22 20 20 21 20 20 20 19 18 20 21 21 21 21 21 22 23 24 24 24
39 39 39 39 38 37 37 38 39 39 39 39 39 39 39 39 39 40 39 39 38 38 38 40 41 40 39 39 38 37 37 36 36 37 37 38 38 38 38 37 37 37 37 37 36 35 34 33 33 33 33 33 32 30 30 30 30 29 29 28 23 20 23 23 22 22 21 20 20 20 19 19 20 20 21 22 21 20 21 21 23 23 24 24 24
43 43 42 41 41 40 38 38 39 40 40 40 41 42 43 42 43 43 43 43 42 42 43 44 43 41 39 38 37 36 35 35 36 37 38 38 39 39 39 39 39 40 40 39 39 38 37 36 36 35 35 34 33 34 34 34 33 32 33 34 30 27 26 26 25 25 25 24 23 23 23 22 22 22 23 23 22 22 22 23 24 24 25 25 24
47 46 45 44 44 43 42 42 42 42 41 41 42 44 46 46 46 46 46 46 46 46 46 45 44 42 40 38 37 36 36 36 37 37 38 38 39 40 40 40 40 40 41 41 41 40 40 39 38 38 37 36 36 38 38 36 36 36 36 36 36 34 33 32 31 29 30 31 28 25 24 23 23 24 24 24 23 23 23 24 25 25 25 25 25
46 47 48 47 47 47 46 46 45 45 44 44 45 47 47 48 49 49 49 49 49 48 48 47 47 44 42 41 40 40 39 39 39 39 39 38 39 40 41 41 41 41 42 43 42 41 41 41 40 40 39 39 39 40 39 38 39 39 37 37 37 36 36 35 35 33 33 36 35 31 29 28 28 28 28 27 26 26 25 25 26 26 26 26 26
46 46 48 49 50 50 49 49 49 49 48 48 48 49 49 49 50 52 52 52 51 50 49 50 50 48 47 45 45 44 44 43 42 42 41 40 39 40 40 41 42 42 42 42 42 41 42 42 42 42 41 41 41 40 40 40 40 40 39 38 38 37 37 36 36 35 35 37 38 36 33 32 30 29 28 27 27 26 26 26 26 27 27 27 28
46 47 48 49 51 52 51 51 52 52 51 51 51 52 51 51 52 53 54 54 53 52 53 54 54 52 52 50 50 49 48 47 46 45 44 43 42 41 41 41 42 42 42 42 41 41 42 42 42 42 42 42 42 42 42 41 41 41 41 40 40 39 38 37 37 37 36 36 38 37 35 34 34 31 29 29 29 28 28 28 28 28 28 28 28
45 47 49 50 52 53 53 54 54 54 54 54 54 54 54 54 54 54 54 54 53 54 56 57 57 56 56 54 53 52 51 49 48 47 46 46 46 44 43 43 42 42 42 41 41 40 40 41 42 42 43 42 42 42 42 42 42 42 42 42 42 41 40 39 39 38 36 36 38 38 36 36 37 35 32 32 31 30 30 29 29 28 28 28 28
Wind_Direction
165 165 158 157 158 160 157 155 150 147 147 142 128 119 108 101 105 116 132 148 160 159 152 150 150 147 145 142 145 144 131 125 110 98 101 111 106 99 98 97 98 99 99 95 94 95 96 97 99 102 103 103 102 103 98 99 108 109 106 108 109 106 105 102 97 95 97 96 92 89 86 86 85 85 84 86 87 88 87 86 85 85 84 83 82
161 164 161 159 160 161 160 159 154 152 153 148 135 124 107 102 104 112 130 145 160 167 169 168 164 161 155 148 140 125 115 132 120 111 116 117 110 104 102 101 102 103 102 98 96 97 96 97 99 103 102 101 99 96 95 99 104 107 108 108 107 102 98 96 91 89 95 97 97 96 91 87 86 85 81 79 80 84 87 87 86 85 84 83 83
160 164 163 160 162 162 162 162 158 158 158 153 141 125 103 103 107 115 126 140 156 166 178 179 173 169 167 165 148 129 127 135 120 118 125 121 112 108 107 107 107 106 104 99 97 97 97 98 99 101 99 98 96 96 99 103 104 105 107 107 104 98 93 90 85 83 87 93 97 98 93 88 87 87 85 82 78 78 79 81 83 85 87 87 86
164 163 165 163 163 164 165 165 162 163 162 157 148 132 109 119 120 123 124 131 149 163 178 181 171 162 165 170 154 147 145 138 126 128 132 124 116 114 113 112 110 108 104 99 98 98 98 98 99 100 100 98 98 100 103 104 102 101 102 103 103 98 93 90 88 87 87 91 95 96 94 90 85 83 84 84 79 77 76 75 73 75 80 84 88
167 165 168 166 166 166 166 168 166 168 166 161 162 161 152 159 137 124 119 120 139 158 173 172 164 155 152 152 142 146 144 140 130 130 133 126 121 119 118 115 112 110 105 102 101 100 100 101 101 101 100 100 100 101 101 100 97 94 94 96 98 97 94 92 92 92 92 92 93 94 93 90 84 78 76 77 76 77 76 74 72 70 72 77 87
169 168 170 168 169 169 169 171 170 172 170 171 178 188 203 197 173 138 117 118 135 138 141 145 148 148 144 142 141 143 143 142 132 130 134 131 127 124 122 119 116 113 108 106 104 104 105 105 103 103 102 101 101 101 99 97 95 94 93 92 91 91 93 94 92 91 93 94 93 91 90 89 85 79 74 71 69 73 74 72 72 72 73 77 85
174 171 172 171 173 173 174 174 174 175 174 181 189 201 217 214 203 172 144 140 135 125 124 133 145 148 146 145 140 139 144 142 135 133 133 133 131 128 124 122 119 116 112 109 108 107 108 107 106 105 105 103 102 102 102 102 103 104 101 97 91 89 94 96 95 92 92 93 92 89 87 87 84 81 75 67 64 69 72 71 72 75 77 80 84
180 176 175 175 176 177 178 177 178 179 181 189 199 212 219 216 206 183 171 156 136 127 134 149 165 163 153 148 143 142 146 141 139 138 135 135 132 129 127 124 122 120 116 112 110 110 110 109 108 107 106 105 103 105 107 110 112 114 113 109 101 95 95 98 100 99 100 96 91 88 85 81 79 80 75 71 68 69 73 75 76 77 80 83 86
184 181 178 178 181 181 181 182 181 184 192 201 209 215 215 215 210 190 178 159 138 132 143 161 183 179 162 146 144 145 144 142 144 146 143 142 136 132 131 129 127 125 121 116 115 114 112 110 109 108 107 105 104 107 110 114 116 116 117 118 114 103 95 97 101 105 107 100 92 87 82 75 74 77 71 70 72 70 74 77 78 79 81 84 86
186 185 181 182 184 185 186 187 189 194 202 209 213 213 214 211 210 197 175 157 140 144 156 168 183 177 166 149 146 146 143 145 147 149 150 151 143 136 137 135 133 131 126 122 120 117 114 112 110 109 108 107 106 109 112 114 114 113 114 118 118 110 103 103 107 111 111 104 99 92 82 73 70 75 67 64 73 73 77 78 78 78 77 79 83
185 188 186 187 188 190 192 196 200 204 209 212 213 210 210 206 209 198 174 159 147 158 167 167 171 172 172 155 150 148 145 148 149 153 155 158 149 144 144 140 140 136 130 127 125 121 117 114 112 110 109 108 107 109 111 113 112 110 109 113 117 111 105 110 119 122 119 113 108 99 88 81 75 75 67 58 68 77 79 76 74 72 71 75 77
186 190 191 194 195 196 197 205 210 214 218 216 213 209 206 202 207 197 181 170 161 170 169 165 170 177 179 160 153 151 149 150 152 158 160 163 160 157 151 143 146 141 135 133 129 125 120 117 113 111 110 109 108 108 109 110 110 111 111 113 116 111 99 105 122 134 135 129 120 114 103 97 89 78 70 58 53 67 77 73 72 69 67 71 71
188 191 194 197 198 201 203 211 216 221 226 222 216 208 203 201 202 196 191 181 172 175 169 168 173 180 184 168 159 154 153 154 155 162 164 169 170 169 163 151 150 147 144 139 135 130 124 121 117 113 111 110 107 106 106 105 106 110 114 114 114 114 103 103 125 146 157 162 156 144 127 118 107 90 81 69 52 48 71 76 73 74 68 70 65
192 191 195 198 198 202 206 213 217 223 229 229 220 207 203 202 200 195 192 187 179 177 173 173 176 186 192 180 169 161 159 160 161 167 171 175 176 177 174 161 155 155 153 146 143 137 131 127 122 118 113 110 106 102 102 100 100 99 102 104 105 113 112 96 117 141 165 182 179 164 152 144 133 117 97 77 67 32 48 86 75 77 66 60 52
196 194 193 194 197 202 206 212 216 221 227 229 220 208 207 203 200 197 192 191 186 180 179 177 179 190 196 189 180 171 167 166 167 173 177 180 180 181 182 172 162 166 165 157 154 144 138 134 128 124 119 113 104 98 95 93 92 84 79 80 85 107 117 87 88 122 152 180 188 180 173 165 162 158 134 99 103 0 334 256 99 94 66 44 34
200 201 195 191 196 201 204 210 214 219 223 224 219 211 210 205 202 202 198 197 193 185 185 183 182 191 196 194 189 180 176 174 175 179 182 185 186 187 186 178 171 178 180 169 162 154 146 143 137 132 125 115 105 94 88 84 79 69 58 62 71 90 110 102 75 106 133 159 186 197 197 189 184 187 184 191 205 146 294 260 249 233 202 150 318
203 208 203 198 198 200 203 207 214 220 220 216 214 212 212 210 205 206 205 202 199 192 191 189 188 195 200 198 195 188 185 183 182 185 188 190 191 194 193 184 177 185 190 179 172 164 156 152 145 141 133 120 108 95 82 75 66 58 48 49 56 67 82 97 99 108 125 140 185 216 218 217 215 214 213 213 205 231 265 263 256 249 242 230 239
203 208 210 211 206 203 205 208 214 219 220 212 209 212 212 212 210 210 210 207 205 201 198 195 194 200 204 203 201 196 192 191 189 191 194 196 196 197 199 191 184 190 196 191 185 176 169 168 160 156 150 139 121 102 84 70 54 46 44 38 37 42 51 48 100 113 119 123 226 247 246 241 236 234 235 231 212 228 257 264 258 247 250 243 235
207 208 212 217 216 213 209 208 214 219 220 212 209 212 211 212 213 213 212 211 210 207 205 201 202 206 208 207 206 203 199 196 195 196 199 202 202 201 202 199 196 198 200 200 197 190 185 184 179 177 175 169 156 134 92 56 32 27 25 25 29 30 30 25 63 98 125 163 249 258 261 256 252 246 244 251 240 235 252 260 253 244 252 245 234
216 215 215 217 219 221 216 210 212 218 222 215 212 214 214 212 212 215 212 212 212 210 210 206 208 212 215 213 210 208 204 201 200 200 203 206 207 206 206 203 205 206 207 210 207 202 199 199 198 197 199 198 197 209 276 355 350 358 359 5 23 23 17 20 54 80 136 164 255 273 273 270 271 259 252 257 254 248 255 256 246 244 253 249 231
222 222 221 219 217 220 219 215 213 216 220 218 216 215 216 214 211 213 212 213 213 211 212 210 212 215 219 221 216 211 209 207 204 203 205 209 211 211 211 208 211 213 215 220 218 214 212 212 215 217 219 222 228 248 279 299 310 320 321 338 12 17 10 16 44 58 55 70 345 289 291 291 286 272 258 259 262 257 253 256 256 247 248 248 236
225 224 224 221 216 217 218 218 217 217 220 219 218 217 218 216 213 213 214 215 214 212 212 212 216 218 221 222 218 216 215 212 209 209 208 211 215 214 215 213 215 219 221 227 229 227 225 224 228 234 236 241 249 259 275 283 292 299 295 296 314 357 358 -0 22 37 20 3 346 304 297 301 293 283 267 262 271 268 257 260 263 255 251 248 242
228 228 228 223 217 216 218 220 219 219 220 219 218 218 219 219 216 215 217 217 216 215 214 214 218 222 223 222 222 222 220 218 214 214 213 214 217 218 218 217 218 221 224 230 235 236 236 235 237 243 247 250 253 259 268 274 281 287 288 288 289 320 340 342 353 14 11 342 324 307 295 295 292 292 281 270 275 277 272 274 271 266 260 252 246
232 232 232 228 221 217 219 222 223 223 222 220 219 217 218 220 218 217 219 219 219 218 216 217 220 224 226 225 227 227 224 222 220 219 219 218 219 220 220 220 221 222 225 229 235 239 239 239 241 245 249 251 252 256 264 271 278 281 285 288 291 300 319 326 333 347 -0 337 306 300 294 291 296 299 292 281 279 281 283 285 285 279 268 257 245
237 234 232 232 229 223 221 221 224 227 225 221 219 218 218 219 219 218 220 221 221 221 220 219 221 225 227 227 229 229 226 224 226 225 224 223 223 224 224 224 225 225 226 228 233 237 239 239 242 245 248 252 255 256 261 269 276 278 281 286 292 300 309 314 319 327 340 342 310 302 297 294 300 301 299 293 288 288 287 289 291 288 275 261 245
233 233 232 233 234 230 227 223 224 229 230 225 220 220 220 219 220 220 220 222 223 224 223 222 222 224 227 229 230 232 230 226 230 232 230 229 227 227 227 227 228 228 228 229 232 235 238 239 242 246 249 253 257 260 263 268 274 277 279 283 288 292 298 303 306 313 322 329 318 309 300 295 299 298 299 300 297 296 292 291 293 291 278 262 248
231 233 233 233 233 231 229 226 225 228 232 231 226 222 221 221 221 221 221 222 224 225 226 226 225 225 227 229 231 235 236 233 235 236 236 234 232 231 229 229 230 231 232 232 234 236 238 239 242 246 250 255 257 261 264 266 271 273 276 279 282 285 290 293 293 298 306 314 310 304 299 293 294 293 297 299 299 301 297 295 293 287 283 275 256
237 237 236 234 234 234 231 229 228 229 230 231 230 227 224 222 221 223 223 222 225 226 228 229 229 228 228 229 232 236 239 240 241 243 244 240 238 237 234 233 231 232 234 234 235 236 239 241 244 248 251 256 258 260 262 265 267 268 271 273 276 280 281 284 288 293 295 299 300 298 297 292 289 289 294 296 295 298 297 298 294 284 279 278 270
238 239 240 238 236 237 237 235 232 232 232 232 231 231 229 226 224 224 224 223 226 227 229 230 231 232 231 231 233 236 238 241 244 246 249 248 246 243 240 238 235 234 235 236 237 238 240 242 245 248 252 256 257 259 261 263 265 266 268 268 271 276 278 281 285 289 289 288 292 293 293 290 286 287 290 292 292 293 294 296 297 290 278 272 276
238 238 240 241 239 238 240 240 238 237 237 237 236 233 231 229 227 227 227 227 228 229 231 232 233 233 233 233 234 237 239 242 245 247 249 251 251 249 247 244 241 238 237 237 238 239 241 243 246 249 251 255 257 258 259 261 263 266 267 268 271 275 276 278 281 281 281 283 287 288 288 288 285 284 285 286 289 290 290 292 294 294 288 278 277
236 236 235 238 240 239 241 242 242 241 240 241 240 238 235 232 230 230 230 231 231 232 233 235 236 236 236 234 235 237 240 242 245 246 249 251 251 251 251 249 247 244 242 241 240 240 240 242 246 248 249 252 255 256 257 259 260 263 266 268 270 270 270 272 273 273 275 280 283 283 282 284 282 280 280 281 283 285 286 288 291 294 293 288 281
235 235 234 235 236 237 240 242 244 244 244 244 243 241 240 239 237 235 234 233 233 235 236 237 239 240 240 238 237 237 239 243 244 245 247 250 250 250 251 251 250 249 249 247 244 242 241 242 244 246 248 250 253 254 256 259 260 261 262 265 266 265 266 266 267 270 274 278 279 280 280 281 281 280 279 278 277 278 280 281 285 290 292 291 288
241 241 239 237 236 236 238 240 242 244 246 247 246 245 243 242 242 241 241 240 238 237 237 238 240 241 242 242 241 240 241 243 244 246 247 249 250 250 251 251 252 252 252 250 247 245 244 244 243 245 248 250 253 255 256 259 261 262 262 264 265 265 265 263 264 266 270 275 277 278 281 282 282 280 278 276 274 272 273 277 279 282 286 288 288
245 241 240 239 239 238 239 240 240 242 245 247 248 248 247 245 245 244 245 246 245 244 241 238 238 240 243 244 245 244 244 244 245 247 248 250 251 251 251 251 252 253 252 250 249 247 246 246 245 246 249 252 255 257 257 260 263 263 264 265 266 266 265 262 264 265 268 273 276 278 280 281 281 280 278 273 271 270 269 272 274 276 278 282 284
242 238 240 240 240 240 240 241 242 242 243 244 247 248 248 249 249 248 247 248 249 250 248 244 241 241 243 245 246 246 246 247 248 249 250 251 252 253 253 253 254 254 253 251 250 249 248 248 248 248 250 252 256 258 259 262 264 265 266 266 267 267 266 264 265 267 270 273 274 276 277 278 279 280 278 272 268 266 265 266 269 271 272 274 279
240 241 242 241 241 240 240 242 242 243 243 243 245 247 248 248 249 250 250 251 250 250 251 250 249 247 245 246 247 248 248 249 250 252 252 252 254 255 255 255 255 255 254 253 252 252 251 251 251 250 251 253 256 259 260 262 264 265 266 266 266 267 267 268 268 270 274 274 275 276 277 277 278 278 276 272 266 262 261 261 262 265 267 268 270
243 244 244 243 244 243 242 242 242 243 243 244 245 245 246 247 248 249 250 250 250 250 250 251 252 251 250 249 249 250 251 251 252 252 253 254 255 256 256 255 253 254 254 253 253 253 254 254 253 252 252 253 255 258 260 262 264 265 265 266 267 268 269 270 272 274 275 275 276 278 279 279 278 276 274 272 269 264 259 257 258 259 261 263 262
248 246 246 247 248 247 246 246 246 245 244 244 244 245 246 247 247 247 247 248 249 250 250 251 252 252 251 250 249 250 251 252 252 252 253 253 254 255 255 254 253 253 252 253 253 253 253 253 253 253 253 254 254 256 259 261 263 265 265 265 266 267 269 271 272 273 274 275 277 278 280 280 278 276 274 273 272 269 265 260 257 257 256 258 258
252 249 248 247 247 248 247 247 246 245 245 244 244 244 245 246 247 246 245 244 245 246 247 249 250 251 251 250 249 249 248 249 251 251 251 250 250 252 254 254 252 252 252 252 251 251 251 253 254 255 255 256 256 257 258 260 262 263 264 265 265 266 267 269 270 271 272 274 276 277 279 279 278 277 276 275 273 272 269 265 261 259 257 256 256
254 251 249 247 247 246 246 246 244 243 244 243 242 241 241 241 242 243 243 242 243 244 246 247 249 251 251 251 250 249 248 248 248 248 248 248 247 249 251 252 252 251 251 252 252 253 253 255 256 258 258 258 258 258 259 261 262 263 263 264 265 267 267 268 269 270 272 274 275 276 278 279 278 277 277 276 274 272 269 266 263 260 259 256 254
252 250 247 247 247 246 245 244 243 242 241 240 240 240 240 239 239 241 243 243 244 244 245 247 249 251 252 252 252 251 250 248 247 247 247 246 245 246 247 249 250 250 251 253 254 255 255 256 257 258 258 259 259 259 260 262 263 263 264 267 269 268 269 269 269 271 272 274 275 276 277 278 277 276 276 275 272 270 267 264 262 259 258 257 255
249 247 246 247 246 245 245 245 244 241 241 241 241 242 243 243 244 247 248 248 248 248 249 250 251 253 253 252 252 251 249 247 247 246 246 246 245 246 247 248 249 251 252 253 254 253 253 253 254 255 256 259 261 261 259 258 260 265 269 272 273 271 270 269 270 272 274 275 276 276 276 275 274 274 273 271 268 265 262 261 260 259 258 257 256
249 247 248 248 247 245 244 244 244 242 243 244 244 245 246 247 249 251 251 251 251 252 253 253 252 251 251 251 251 250 248 246 246 245 246 246 246 247 248 249 250 251 252 253 253 252 252 251 252 254 255 257 260 260 258 257 260 265 268 270 273 276 277 274 274 276 278 278 277 276 275 274 274 274 270 265 262 259 257 256 256 257 257 257 257
249 248 247 246 245 246 246 244 244 244 245 246 247 248 248 248 250 250 250 250 251 251 251 251 249 248 249 249 249 248 247 246 246 246 246 246 246 246 248 249 250 251 252 253 253 253 253 253 253 254 255 256 259 262 262 260 259 258 258 261 267 274 277 279 281 282 281 279 278 277 276 276 276 273 268 264 259 256 254 253 253 255 256 256 256
249 250 250 247 245 247 248 247 246 247 248 248 249 248 246 245 245 245 245 245 245 245 244 245 244 244 245 246 246 246 246 245 245 245 246 246 246 246 246 247 248 250 251 253 255 256 256 255 254 255 255 258 261 265 264 261 259 256 254 255 256 260 271 281 288 287 282 278 278 278 275 274 276 273 269 266 261 257 254 253 255 256 258 259 259
252 254 255 252 249 249 250 250 250 250 250 251 250 248 246 245 244 243 242 242 241 241 243 244 243 244 246 247 246 247 247 247 246 245 245 246 247 246 246 246 247 248 250 253 255 255 255 255 256 256 257 260 262 263 263 262 262 260 257 256 256 257 266 275 281 285 285 282 278 277 276 274 274 271 268 265 262 258 255 256 257 257 260 261 261
257 258 258 255 252 251 251 251 252 253 253 253 252 249 247 246 245 245 245 245 244 246 250 251 249 249 250 250 249 250 250 250 250 250 249 248 249 249 247 247 247 248 249 251 253 254 256 257 257 258 259 260 259 260 263 263 262 262 261 261 261 261 262 264 268 275 283 286 282 276 274 273 271 271 270 268 267 264 260 260 261 261 261 262 263
260 260 259 256 253 252 253 253 253 254 255 255 253 251 250 250 249 249 248 247 248 250 253 252 253 252 250 250 251 251 251 251 252 252 252 252 252 252 251 250 249 249 249 251 253 255 256 257 257 258 258 258 258 260 263 263 263 264 264 263 264 264 263 262 263 265 271 278 282 279 275 274 274 274 274 274 273 272 270 269 269 268 267 266 265
259 259 258 258 256 254 254 254 254 255 256 255 253 252 253 253 253 252 250 250 251 252 251 250 251 252 252 252 252 252 252 252 253 252 252 252 252 254 254 254 252 251 251 252 255 256 256 257 257 257 258 258 259 260 262 262 263 265 265 264 264 264 263 262 261 259 258 264 273 281 280 278 279 278 277 279 279 278 278 276 275 272 270 268 267
257 257 258 258 257 255 254 253 254 255 256 255 253 253 253 253 253 253 253 254 254 254 251 249 249 250 252 253 253 254 254 253 253 253 252 252 251 252 253 255 255 254 254 255 255 256 256 256 257 257 258 259 260 260 261 262 263 264 265 264 263 262 260 260 259 256 254 254 261 274 280 279 281 283 282 282 281 282 281 279 277 274 271 270 269
256 256 257 257 256 255 255 254 255 255 256 256 255 254 254 253 253 254 255 257 257 256 253 251 251 251 252 254 255 256 256 255 255 254 254 253 252 251 251 254 255 255 255 255 255 256 256 257 257 257 257 257 258 259 261 261 262 262 262 262 263 262 261 261 263 260 257 255 256 267 277 278 280 283 283 284 283 282 281 279 277 276 275 273 270